Year,Month,Day,Hour,Minute,Value (Times are PST for temperature in C)
2010,11,23,00,00,-4.20
2010,11,23,00,01,-4.20
2010,11,23,00,02,-4.20
2010,11,23,00,03,-4.20
2010,11,23,00,04,-4.20
2010,11,23,00,05,-4.20
2010,11,23,00,06,-4.20
2010,11,23,00,07,-4.20
2010,11,23,00,08,-4.20
2010,11,23,00,09,-4.20
2010,11,23,00,10,-4.20
2010,11,23,00,11,-4.20
2010,11,23,00,12,-4.20
2010,11,23,00,13,-4.20
2010,11,23,00,14,-4.20
2010,11,23,00,15,-4.20
2010,11,23,00,16,-4.10
2010,11,23,00,17,-4.10
2010,11,23,00,18,-4.10
2010,11,23,00,19,-4.20
2010,11,23,00,20,-4.20
2010,11,23,00,21,-4.20
2010,11,23,00,22,-4.20
2010,11,23,00,23,-4.20
2010,11,23,00,24,-4.20
2010,11,23,00,25,-4.20
2010,11,23,00,26,-4.20
2010,11,23,00,27,-4.20
2010,11,23,00,28,-4.20
2010,11,23,00,29,-4.20
2010,11,23,00,30,-4.20
2010,11,23,00,31,-4.20
2010,11,23,00,32,-4.20
2010,11,23,00,33,-4.20
2010,11,23,00,34,-4.20
2010,11,23,00,35,-4.20
2010,11,23,00,36,-4.20
2010,11,23,00,37,-4.20
2010,11,23,00,38,-4.20
2010,11,23,00,39,-4.20
2010,11,23,00,40,-4.20
2010,11,23,00,41,-4.20
2010,11,23,00,42,-4.20
2010,11,23,00,43,-4.20
2010,11,23,00,44,-4.20
2010,11,23,00,45,-4.20
2010,11,23,00,46,-4.20
2010,11,23,00,47,-4.20
2010,11,23,00,48,-4.20
2010,11,23,00,49,-4.20
2010,11,23,00,50,-4.20
2010,11,23,00,51,-4.20
2010,11,23,00,52,-4.20
2010,11,23,00,53,-4.20
2010,11,23,00,54,-4.20
2010,11,23,00,55,-4.20
2010,11,23,00,56,-4.20
2010,11,23,00,57,-4.20
2010,11,23,00,58,-4.20
2010,11,23,00,59,-4.20
2010,11,23,01,00,-4.20
2010,11,23,01,01,-4.20
2010,11,23,01,02,-4.20
2010,11,23,01,03,-4.20
2010,11,23,01,04,-4.20
2010,11,23,01,05,-4.30
2010,11,23,01,06,-4.30
2010,11,23,01,07,-4.30
2010,11,23,01,08,-4.30
2010,11,23,01,09,-4.20
2010,11,23,01,10,-4.30
2010,11,23,01,11,-4.30
2010,11,23,01,12,-4.30
2010,11,23,01,13,-4.20
2010,11,23,01,14,-4.20
2010,11,23,01,15,-4.20
2010,11,23,01,16,-4.20
2010,11,23,01,17,-4.20
2010,11,23,01,18,-4.20
2010,11,23,01,19,-4.20
2010,11,23,01,20,-4.30
2010,11,23,01,21,-4.20
2010,11,23,01,22,-4.20
2010,11,23,01,23,-4.20
2010,11,23,01,24,-4.20
2010,11,23,01,25,-4.30
2010,11,23,01,26,-4.30
2010,11,23,01,27,-4.30
2010,11,23,01,28,-4.30
2010,11,23,01,29,-4.30
2010,11,23,01,30,-4.30
2010,11,23,01,31,-4.30
2010,11,23,01,32,-4.30
2010,11,23,01,33,-4.30
2010,11,23,01,34,-4.30
2010,11,23,01,35,-4.40
2010,11,23,01,36,-4.40
2010,11,23,01,37,-4.30
2010,11,23,01,38,-4.40
2010,11,23,01,39,-4.40
2010,11,23,01,40,-4.40
2010,11,23,01,41,-4.40
2010,11,23,01,42,-4.40
2010,11,23,01,43,-4.40
2010,11,23,01,44,-4.40
2010,11,23,01,45,-4.50
2010,11,23,01,46,-4.50
2010,11,23,01,47,-4.50
2010,11,23,01,48,-4.50
2010,11,23,01,49,-4.50
2010,11,23,01,50,-4.50
2010,11,23,01,51,-4.50
2010,11,23,01,52,-4.50
2010,11,23,01,53,-4.50
2010,11,23,01,54,-4.50
2010,11,23,01,55,-4.50
2010,11,23,01,56,-4.50
2010,11,23,01,57,-4.50
2010,11,23,01,58,-4.40
2010,11,23,01,59,-4.40
2010,11,23,02,00,-4.40
2010,11,23,02,01,-4.40
2010,11,23,02,02,-4.40
2010,11,23,02,03,-4.50
2010,11,23,02,04,-4.50
2010,11,23,02,05,-4.50
2010,11,23,02,06,-4.50
2010,11,23,02,07,-4.50
2010,11,23,02,08,-4.50
2010,11,23,02,09,-4.50
2010,11,23,02,10,-4.50
2010,11,23,02,11,-4.50
2010,11,23,02,12,-4.50
2010,11,23,02,13,-4.60
2010,11,23,02,14,-4.50
2010,11,23,02,15,-4.50
2010,11,23,02,16,-4.50
2010,11,23,02,17,-4.50
2010,11,23,02,18,-4.50
2010,11,23,02,19,-4.60
2010,11,23,02,20,-4.60
2010,11,23,02,21,-4.60
2010,11,23,02,22,-4.60
2010,11,23,02,23,-4.60
2010,11,23,02,24,-4.60
2010,11,23,02,25,-4.60
2010,11,23,02,26,-4.60
2010,11,23,02,27,-4.60
2010,11,23,02,28,-4.70
2010,11,23,02,29,-4.70
2010,11,23,02,30,-4.70
2010,11,23,02,31,-4.70
2010,11,23,02,32,-4.70
2010,11,23,02,33,-4.70
2010,11,23,02,34,-4.70
2010,11,23,02,35,-4.70
2010,11,23,02,36,-4.70
2010,11,23,02,37,-4.70
2010,11,23,02,38,-4.70
2010,11,23,02,39,-4.70
2010,11,23,02,40,-4.70
2010,11,23,02,41,-4.70
2010,11,23,02,42,-4.70
2010,11,23,02,43,-4.70
2010,11,23,02,44,-4.70
2010,11,23,02,45,-4.70
2010,11,23,02,46,-4.70
2010,11,23,02,47,-4.70
2010,11,23,02,48,-4.70
2010,11,23,02,49,-4.70
2010,11,23,02,50,-4.70
2010,11,23,02,51,-4.70
2010,11,23,02,52,-4.70
2010,11,23,02,53,-4.70
2010,11,23,02,54,-4.70
2010,11,23,02,55,-4.70
2010,11,23,02,56,-4.70
2010,11,23,02,57,-4.70
2010,11,23,02,58,-4.70
2010,11,23,02,59,-4.70
2010,11,23,03,00,-4.70
2010,11,23,03,01,-4.70
2010,11,23,03,02,-4.70
2010,11,23,03,03,-4.70
2010,11,23,03,04,-4.70
2010,11,23,03,05,-4.70
2010,11,23,03,06,-4.60
2010,11,23,03,07,-4.60
2010,11,23,03,08,-4.60
2010,11,23,03,09,-4.60
2010,11,23,03,10,-4.60
2010,11,23,03,11,-4.60
2010,11,23,03,12,-4.60
2010,11,23,03,13,-4.70
2010,11,23,03,14,-4.70
2010,11,23,03,15,-4.70
2010,11,23,03,16,-4.70
2010,11,23,03,17,-4.60
2010,11,23,03,18,-4.60
2010,11,23,03,19,-4.60
2010,11,23,03,20,-4.60
2010,11,23,03,21,-4.60
2010,11,23,03,22,-4.60
2010,11,23,03,23,-4.60
2010,11,23,03,24,-4.60
2010,11,23,03,25,-4.60
2010,11,23,03,26,-4.70
2010,11,23,03,27,-4.70
2010,11,23,03,28,-4.70
2010,11,23,03,29,-4.70
2010,11,23,03,30,-4.70
2010,11,23,03,31,-4.70
2010,11,23,03,32,-4.70
2010,11,23,03,33,-4.70
2010,11,23,03,34,-4.70
2010,11,23,03,35,-4.70
2010,11,23,03,36,-4.70
2010,11,23,03,37,-4.70
2010,11,23,03,38,-4.70
2010,11,23,03,39,-4.70
2010,11,23,03,40,-4.80
2010,11,23,03,41,-4.80
2010,11,23,03,42,-4.80
2010,11,23,03,43,-4.90
2010,11,23,03,44,-4.90
2010,11,23,03,45,-4.90
2010,11,23,03,46,-4.90
2010,11,23,03,47,-5.00
2010,11,23,03,48,-5.00
2010,11,23,03,49,-5.00
2010,11,23,03,50,-5.00
2010,11,23,03,51,-5.00
2010,11,23,03,52,-5.00
2010,11,23,03,53,-5.00
2010,11,23,03,54,-5.00
2010,11,23,03,55,-5.00
2010,11,23,03,56,-5.00
2010,11,23,03,57,-5.10
2010,11,23,03,58,-5.10
2010,11,23,03,59,-5.10
2010,11,23,04,00,-5.10
2010,11,23,04,01,-5.20
2010,11,23,04,02,-5.20
2010,11,23,04,03,-5.20
2010,11,23,04,04,-5.20
2010,11,23,04,05,-5.20
2010,11,23,04,06,-5.30
2010,11,23,04,07,-5.30
2010,11,23,04,08,-5.20
2010,11,23,04,09,-5.20
2010,11,23,04,10,-5.20
2010,11,23,04,11,-5.20
2010,11,23,04,12,-5.20
2010,11,23,04,13,-5.20
2010,11,23,04,14,-5.20
2010,11,23,04,15,-5.20
2010,11,23,04,16,-5.20
2010,11,23,04,17,-5.20
2010,11,23,04,18,-5.10
2010,11,23,04,19,-5.10
2010,11,23,04,20,-5.20
2010,11,23,04,21,-5.20
2010,11,23,04,22,-5.20
2010,11,23,04,23,-5.20
2010,11,23,04,24,-5.20
2010,11,23,04,25,-5.30
2010,11,23,04,26,-5.30
2010,11,23,04,27,-5.30
2010,11,23,04,28,-5.30
2010,11,23,04,29,-5.30
2010,11,23,04,30,-5.30
2010,11,23,04,31,-5.30
2010,11,23,04,32,-5.30
2010,11,23,04,33,-5.30
2010,11,23,04,34,-5.30
2010,11,23,04,35,-5.30
2010,11,23,04,36,-5.30
2010,11,23,04,37,-5.30
2010,11,23,04,38,-5.30
2010,11,23,04,39,-5.40
2010,11,23,04,40,-5.40
2010,11,23,04,41,-5.40
2010,11,23,04,42,-5.40
2010,11,23,04,43,-5.40
2010,11,23,04,44,-5.40
2010,11,23,04,45,-5.40
2010,11,23,04,46,-5.50
2010,11,23,04,47,-5.50
2010,11,23,04,48,-5.50
2010,11,23,04,49,-5.50
2010,11,23,04,50,-5.60
2010,11,23,04,51,-5.60
2010,11,23,04,52,-5.60
2010,11,23,04,53,-5.60
2010,11,23,04,54,-5.60
2010,11,23,04,55,-5.60
2010,11,23,04,56,-5.60
2010,11,23,04,57,-5.60
2010,11,23,04,58,-5.60
2010,11,23,04,59,-5.60
2010,11,23,05,00,-5.60
2010,11,23,05,01,-5.60
2010,11,23,05,02,-5.60
2010,11,23,05,03,-5.60
2010,11,23,05,04,-5.60
2010,11,23,05,05,-5.60
2010,11,23,05,06,-5.60
2010,11,23,05,07,-5.60
2010,11,23,05,08,-5.60
2010,11,23,05,09,-5.60
2010,11,23,05,10,-5.60
2010,11,23,05,11,-5.60
2010,11,23,05,12,-5.60
2010,11,23,05,13,-5.60
2010,11,23,05,14,-5.50
2010,11,23,05,15,-5.50
2010,11,23,05,16,-5.50
2010,11,23,05,17,-5.50
2010,11,23,05,18,-5.50
2010,11,23,05,19,-5.50
2010,11,23,05,20,-5.50
2010,11,23,05,21,-5.50
2010,11,23,05,22,-5.50
2010,11,23,05,23,-5.50
2010,11,23,05,24,-5.40
2010,11,23,05,25,-5.40
2010,11,23,05,26,-5.40
2010,11,23,05,27,-5.40
2010,11,23,05,28,-5.40
2010,11,23,05,29,-5.40
2010,11,23,05,30,-5.40
2010,11,23,05,31,-5.40
2010,11,23,05,32,-5.40
2010,11,23,05,33,-5.40
2010,11,23,05,34,-5.40
2010,11,23,05,35,-5.40
2010,11,23,05,36,-5.40
2010,11,23,05,37,-5.40
2010,11,23,05,38,-5.40
2010,11,23,05,39,-5.50
2010,11,23,05,40,-5.50
2010,11,23,05,41,-5.50
2010,11,23,05,42,-5.50
2010,11,23,05,43,-5.50
2010,11,23,05,44,-5.60
2010,11,23,05,45,-5.60
2010,11,23,05,46,-5.60
2010,11,23,05,47,-5.60
2010,11,23,05,48,-5.60
2010,11,23,05,49,-5.60
2010,11,23,05,50,-5.60
2010,11,23,05,51,-5.70
2010,11,23,05,52,-5.70
2010,11,23,05,53,-5.70
2010,11,23,05,54,-5.70
2010,11,23,05,55,-5.70
2010,11,23,05,56,-5.80
2010,11,23,05,57,-5.80
2010,11,23,05,58,-5.80
2010,11,23,05,59,-5.80
2010,11,23,06,00,-5.80
2010,11,23,06,01,-5.90
2010,11,23,06,02,-5.90
2010,11,23,06,03,-5.90
2010,11,23,06,04,-5.90
2010,11,23,06,05,-5.90
2010,11,23,06,06,-5.90
2010,11,23,06,07,-5.90
2010,11,23,06,08,-5.90
2010,11,23,06,09,-5.90
2010,11,23,06,10,-5.90
2010,11,23,06,11,-5.90
2010,11,23,06,12,-6.00
2010,11,23,06,13,-6.10
2010,11,23,06,14,-6.10
2010,11,23,06,15,-6.10
2010,11,23,06,16,-6.10
2010,11,23,06,17,-6.10
2010,11,23,06,18,-6.10
2010,11,23,06,19,-6.10
2010,11,23,06,20,-6.10
2010,11,23,06,21,-6.10
2010,11,23,06,22,-6.10
2010,11,23,06,23,-6.10
2010,11,23,06,24,-6.10
2010,11,23,06,25,-6.20
2010,11,23,06,26,-6.20
2010,11,23,06,27,-6.20
2010,11,23,06,28,-6.20
2010,11,23,06,29,-6.20
2010,11,23,06,30,-6.20
2010,11,23,06,31,-6.20
2010,11,23,06,32,-6.20
2010,11,23,06,33,-6.20
2010,11,23,06,34,-6.20
2010,11,23,06,35,-6.20
2010,11,23,06,36,-6.20
2010,11,23,06,37,-6.20
2010,11,23,06,38,-6.20
2010,11,23,06,39,-6.20
2010,11,23,06,40,-6.20
2010,11,23,06,41,-6.20
2010,11,23,06,42,-6.20
2010,11,23,06,43,-6.20
2010,11,23,06,44,-6.20
2010,11,23,06,45,-6.20
2010,11,23,06,46,-6.20
2010,11,23,06,47,-6.20
2010,11,23,06,48,-6.20
2010,11,23,06,49,-6.20
2010,11,23,06,50,-6.20
2010,11,23,06,51,-6.20
2010,11,23,06,52,-6.20
2010,11,23,06,53,-6.20
2010,11,23,06,54,-6.20
2010,11,23,06,55,-6.20
2010,11,23,06,56,-6.20
2010,11,23,06,57,-6.20
2010,11,23,06,58,-6.20
2010,11,23,06,59,-6.20
2010,11,23,07,00,-6.20
2010,11,23,07,01,-6.30
2010,11,23,07,02,-6.30
2010,11,23,07,03,-6.30
2010,11,23,07,04,-6.30
2010,11,23,07,05,-6.30
2010,11,23,07,06,-6.30
2010,11,23,07,07,-6.30
2010,11,23,07,08,-6.30
2010,11,23,07,09,-6.30
2010,11,23,07,10,-6.30
2010,11,23,07,11,-6.30
2010,11,23,07,12,-6.30
2010,11,23,07,13,-6.30
2010,11,23,07,14,-6.30
2010,11,23,07,15,-6.30
2010,11,23,07,16,-6.30
2010,11,23,07,17,-6.30
2010,11,23,07,18,-6.30
2010,11,23,07,19,-6.30
2010,11,23,07,20,-6.30
2010,11,23,07,21,-6.30
2010,11,23,07,22,-6.30
2010,11,23,07,23,-6.30
2010,11,23,07,24,-6.40
2010,11,23,07,25,-6.40
2010,11,23,07,26,-6.40
2010,11,23,07,27,-6.40
2010,11,23,07,28,-6.40
2010,11,23,07,29,-6.40
2010,11,23,07,30,-6.40
2010,11,23,07,31,-6.40
2010,11,23,07,32,-6.40
2010,11,23,07,33,-6.40
2010,11,23,07,34,-6.40
2010,11,23,07,35,-6.40
2010,11,23,07,36,-6.40
2010,11,23,07,37,-6.40
2010,11,23,07,38,-6.40
2010,11,23,07,39,-6.40
2010,11,23,07,40,-6.40
2010,11,23,07,41,-6.40
2010,11,23,07,42,-6.40
2010,11,23,07,43,-6.40
2010,11,23,07,44,-6.40
2010,11,23,07,45,-6.40
2010,11,23,07,46,-6.40
2010,11,23,07,47,-6.40
2010,11,23,07,48,-6.40
2010,11,23,07,49,-6.40
2010,11,23,07,50,-6.40
2010,11,23,07,51,-6.40
2010,11,23,07,52,-6.40
2010,11,23,07,53,-6.40
2010,11,23,07,54,-6.40
2010,11,23,07,55,-6.40
2010,11,23,07,56,-6.40
2010,11,23,07,57,-6.40
2010,11,23,07,58,-6.30
2010,11,23,07,59,-6.30
2010,11,23,08,00,-6.30
2010,11,23,08,01,-6.30
2010,11,23,08,02,-6.20
2010,11,23,08,03,-6.20
2010,11,23,08,04,-6.20
2010,11,23,08,05,-6.20
2010,11,23,08,06,-6.10
2010,11,23,08,07,-6.10
2010,11,23,08,08,-6.10
2010,11,23,08,09,-6.10
2010,11,23,08,10,-6.10
2010,11,23,08,11,-6.10
2010,11,23,08,12,-6.00
2010,11,23,08,13,-5.90
2010,11,23,08,14,-5.90
2010,11,23,08,15,-5.90
2010,11,23,08,16,-5.90
2010,11,23,08,17,-5.90
2010,11,23,08,18,-5.90
2010,11,23,08,19,-5.90
2010,11,23,08,20,-5.90
2010,11,23,08,21,-5.90
2010,11,23,08,22,-5.80
2010,11,23,08,23,-5.80
2010,11,23,08,24,-5.70
2010,11,23,08,25,-5.70
2010,11,23,08,26,-5.70
2010,11,23,08,27,-5.70
2010,11,23,08,28,-5.60
2010,11,23,08,29,-5.60
2010,11,23,08,30,-5.60
2010,11,23,08,31,-5.60
2010,11,23,08,32,-5.60
2010,11,23,08,33,-5.60
2010,11,23,08,34,-5.60
2010,11,23,08,35,-5.50
2010,11,23,08,36,-5.50
2010,11,23,08,37,-5.50
2010,11,23,08,38,-5.40
2010,11,23,08,39,-5.40
2010,11,23,08,40,-5.50
2010,11,23,08,41,-5.40
2010,11,23,08,42,-5.40
2010,11,23,08,43,-5.40
2010,11,23,08,44,-5.40
2010,11,23,08,45,-5.40
2010,11,23,08,46,-5.30
2010,11,23,08,47,-5.30
2010,11,23,08,48,-5.30
2010,11,23,08,49,-5.30
2010,11,23,08,50,-5.20
2010,11,23,08,51,-5.10
2010,11,23,08,52,-5.10
2010,11,23,08,53,-5.00
2010,11,23,08,54,-5.00
2010,11,23,08,55,-5.00
2010,11,23,08,56,-4.90
2010,11,23,08,57,-4.90
2010,11,23,08,58,-4.90
2010,11,23,08,59,-4.80
2010,11,23,09,00,-4.80
2010,11,23,09,01,-4.70
2010,11,23,09,02,-4.60
2010,11,23,09,03,-4.50
2010,11,23,09,04,-4.50
2010,11,23,09,05,-4.50
2010,11,23,09,06,-4.50
2010,11,23,09,07,-4.40
2010,11,23,09,08,-4.50
2010,11,23,09,09,-4.50
2010,11,23,09,10,-4.60
2010,11,23,09,11,-4.60
2010,11,23,09,12,-4.70
2010,11,23,09,13,-4.80
2010,11,23,09,14,-4.80
2010,11,23,09,15,-4.90
2010,11,23,09,16,-4.80
2010,11,23,09,17,-4.80
2010,11,23,09,18,-4.80
2010,11,23,09,19,-4.70
2010,11,23,09,20,-4.70
2010,11,23,09,21,-4.50
2010,11,23,09,22,-4.50
2010,11,23,09,23,-4.50
2010,11,23,09,24,-4.50
2010,11,23,09,25,-4.60
2010,11,23,09,26,-4.60
2010,11,23,09,27,-4.50
2010,11,23,09,28,-4.30
2010,11,23,09,29,-4.20
2010,11,23,09,30,-4.20
2010,11,23,09,31,-4.10
2010,11,23,09,32,-4.10
2010,11,23,09,33,-4.00
2010,11,23,09,34,-3.90
2010,11,23,09,35,-3.80
2010,11,23,09,36,-3.70
2010,11,23,09,37,-3.70
2010,11,23,09,38,-3.60
2010,11,23,09,39,-3.50
2010,11,23,09,40,-3.50
2010,11,23,09,41,-3.60
2010,11,23,09,42,-3.60
2010,11,23,09,43,-3.60
2010,11,23,09,44,-3.70
2010,11,23,09,45,-3.60
2010,11,23,09,46,-3.60
2010,11,23,09,47,-3.60
2010,11,23,09,48,-3.50
2010,11,23,09,49,-3.50
2010,11,23,09,50,-3.50
2010,11,23,09,51,-3.70
2010,11,23,09,52,-4.00
2010,11,23,09,53,-4.00
2010,11,23,09,54,-4.20
2010,11,23,09,55,-4.20
2010,11,23,09,56,-4.20
2010,11,23,09,57,-4.30
2010,11,23,09,58,-4.30
2010,11,23,09,59,-4.20
2010,11,23,10,00,-4.10
2010,11,23,10,01,-4.00
2010,11,23,10,02,-3.90
2010,11,23,10,03,-3.90
2010,11,23,10,04,-3.80
2010,11,23,10,05,-3.80
2010,11,23,10,06,-3.80
2010,11,23,10,07,-3.90
2010,11,23,10,08,-3.90
2010,11,23,10,09,-4.00
2010,11,23,10,10,-4.10
2010,11,23,10,11,-4.20
2010,11,23,10,12,-4.20
2010,11,23,10,13,-4.30
2010,11,23,10,14,-4.40
2010,11,23,10,15,-4.50
2010,11,23,10,16,-4.50
2010,11,23,10,17,-4.50
2010,11,23,10,18,-4.50
2010,11,23,10,19,-4.60
2010,11,23,10,20,-4.60
2010,11,23,10,21,-4.50
2010,11,23,10,22,-4.40
2010,11,23,10,23,-4.40
2010,11,23,10,24,-4.40
2010,11,23,10,25,-4.40
2010,11,23,10,26,-4.30
2010,11,23,10,27,-4.20
2010,11,23,10,28,-4.00
2010,11,23,10,29,-3.90
2010,11,23,10,30,-3.80
2010,11,23,10,31,-3.80
2010,11,23,10,32,-3.90
2010,11,23,10,33,-4.00
2010,11,23,10,34,-4.10
2010,11,23,10,35,-4.20
2010,11,23,10,36,-4.30
2010,11,23,10,37,-4.30
2010,11,23,10,38,-4.30
2010,11,23,10,39,-4.20
2010,11,23,10,40,-4.30
2010,11,23,10,41,-4.30
2010,11,23,10,42,-4.30
2010,11,23,10,43,-4.30
2010,11,23,10,44,-4.30
2010,11,23,10,45,-4.30
2010,11,23,10,46,-4.20
2010,11,23,10,47,-4.10
2010,11,23,10,48,-4.00
2010,11,23,10,49,-3.90
2010,11,23,10,50,-3.80
2010,11,23,10,51,-3.70
2010,11,23,10,52,-3.60
2010,11,23,10,53,-3.60
2010,11,23,10,54,-3.60
2010,11,23,10,55,-3.60
2010,11,23,10,56,-3.70
2010,11,23,10,57,-3.80
2010,11,23,10,58,-3.80
2010,11,23,10,59,-3.90
2010,11,23,11,00,-4.00
2010,11,23,11,01,-4.10
2010,11,23,11,02,-4.20
2010,11,23,11,03,-4.20
2010,11,23,11,04,-4.20
2010,11,23,11,05,-4.20
2010,11,23,11,06,-4.20
2010,11,23,11,07,-4.20
2010,11,23,11,08,-4.20
2010,11,23,11,09,-4.20
2010,11,23,11,10,-4.20
2010,11,23,11,11,-4.10
2010,11,23,11,12,-4.10
2010,11,23,11,13,-4.00
2010,11,23,11,14,-3.90
2010,11,23,11,15,-3.80
2010,11,23,11,16,-3.70
2010,11,23,11,17,-3.70
2010,11,23,11,18,-3.50
2010,11,23,11,19,-3.40
2010,11,23,11,20,-3.20
2010,11,23,11,21,-3.00
2010,11,23,11,22,-3.00
2010,11,23,11,23,-3.00
2010,11,23,11,24,-2.90
2010,11,23,11,25,-2.90
2010,11,23,11,26,-3.00
2010,11,23,11,27,-3.00
2010,11,23,11,28,-3.00
2010,11,23,11,29,-3.00
2010,11,23,11,30,-3.00
2010,11,23,11,31,-2.90
2010,11,23,11,32,-2.90
2010,11,23,11,33,-2.80
2010,11,23,11,34,-2.80
2010,11,23,11,35,-2.80
2010,11,23,11,36,-2.80
2010,11,23,11,37,-2.80
2010,11,23,11,38,-2.70
2010,11,23,11,39,-2.70
2010,11,23,11,40,-2.80
2010,11,23,11,41,-2.90
2010,11,23,11,42,-3.10
2010,11,23,11,43,-3.30
2010,11,23,11,44,-3.50
2010,11,23,11,45,-3.50
2010,11,23,11,46,-3.60
2010,11,23,11,47,-3.70
2010,11,23,11,48,-3.70
2010,11,23,11,49,-3.70
2010,11,23,11,50,-3.70
2010,11,23,11,51,-3.70
2010,11,23,11,52,-3.70
2010,11,23,11,53,-3.70
2010,11,23,11,54,-3.70
2010,11,23,11,55,-3.70
2010,11,23,11,56,-3.70
2010,11,23,11,57,-3.70
2010,11,23,11,58,-3.70
2010,11,23,11,59,-3.70
2010,11,23,12,00,-3.70
2010,11,23,12,01,-3.80
2010,11,23,12,02,-3.80
2010,11,23,12,03,-3.90
2010,11,23,12,04,-3.90
2010,11,23,12,05,-3.90
2010,11,23,12,06,-3.90
2010,11,23,12,07,-3.90
2010,11,23,12,08,-3.80
2010,11,23,12,09,-3.60
2010,11,23,12,10,-3.40
2010,11,23,12,11,-3.30
2010,11,23,12,12,-3.20
2010,11,23,12,13,-3.00
2010,11,23,12,14,-3.00
2010,11,23,12,15,-2.90
2010,11,23,12,16,-2.80
2010,11,23,12,17,-2.80
2010,11,23,12,18,-2.70
2010,11,23,12,19,-2.80
2010,11,23,12,20,-2.80
2010,11,23,12,21,-2.80
2010,11,23,12,22,-2.70
2010,11,23,12,23,-2.70
2010,11,23,12,24,-2.80
2010,11,23,12,25,-2.90
2010,11,23,12,26,-3.10
2010,11,23,12,27,-3.20
2010,11,23,12,28,-3.20
2010,11,23,12,29,-3.20
2010,11,23,12,30,-3.20
2010,11,23,12,31,-3.20
2010,11,23,12,32,-3.20
2010,11,23,12,33,-3.20
2010,11,23,12,34,-3.20
2010,11,23,12,35,-3.10
2010,11,23,12,36,-3.00
2010,11,23,12,37,-3.00
2010,11,23,12,38,-2.80
2010,11,23,12,39,-2.70
2010,11,23,12,40,-2.60
2010,11,23,12,41,-2.60
2010,11,23,12,42,-2.50
2010,11,23,12,43,-2.50
2010,11,23,12,44,-2.40
2010,11,23,12,45,-2.20
2010,11,23,12,46,-2.20
2010,11,23,12,47,-2.20
2010,11,23,12,48,-2.40
2010,11,23,12,49,-2.50
2010,11,23,12,50,-2.70
2010,11,23,12,51,-2.70
2010,11,23,12,52,-2.70
2010,11,23,12,53,-2.70
2010,11,23,12,54,-2.70
2010,11,23,12,55,-2.70
2010,11,23,12,56,-2.80
2010,11,23,12,57,-2.90
2010,11,23,12,58,-3.00
2010,11,23,12,59,-3.00
2010,11,23,13,00,-3.10
2010,11,23,13,01,-3.20
2010,11,23,13,02,-3.30
2010,11,23,13,03,-3.20
2010,11,23,13,04,-3.10
2010,11,23,13,05,-3.00
2010,11,23,13,06,-3.00
2010,11,23,13,07,-3.10
2010,11,23,13,08,-3.10
2010,11,23,13,09,-3.00
2010,11,23,13,10,-2.90
2010,11,23,13,11,-2.80
2010,11,23,13,12,-2.70
2010,11,23,13,13,-2.60
2010,11,23,13,14,-2.50
2010,11,23,13,15,-2.50
2010,11,23,13,16,-2.40
2010,11,23,13,17,-2.30
2010,11,23,13,18,-2.20
2010,11,23,13,19,-2.10
2010,11,23,13,20,-1.90
2010,11,23,13,21,-1.80
2010,11,23,13,22,-1.80
2010,11,23,13,23,-1.70
2010,11,23,13,24,-1.70
2010,11,23,13,25,-1.60
2010,11,23,13,26,-1.60
2010,11,23,13,27,-1.60
2010,11,23,13,28,-1.60
2010,11,23,13,29,-1.70
2010,11,23,13,30,-1.70
2010,11,23,13,31,-1.70
2010,11,23,13,32,-1.70
2010,11,23,13,33,-1.70
2010,11,23,13,34,-1.70
2010,11,23,13,35,-1.70
2010,11,23,13,36,-1.70
2010,11,23,13,37,-1.70
2010,11,23,13,38,-1.70
2010,11,23,13,39,-1.80
2010,11,23,13,40,-1.80
2010,11,23,13,41,-2.00
2010,11,23,13,42,-2.00
2010,11,23,13,43,-2.10
2010,11,23,13,44,-2.10
2010,11,23,13,45,-2.10
2010,11,23,13,46,-2.00
2010,11,23,13,47,-2.00
2010,11,23,13,48,-2.00
2010,11,23,13,49,-1.90
2010,11,23,13,50,-1.90
2010,11,23,13,51,-1.90
2010,11,23,13,52,-1.90
2010,11,23,13,53,-1.90
2010,11,23,13,54,-1.90
2010,11,23,13,55,-1.90
2010,11,23,13,56,-1.90
2010,11,23,13,57,-1.90
2010,11,23,13,58,-2.00
2010,11,23,13,59,-2.10
2010,11,23,14,00,-2.30
2010,11,23,14,01,-2.50
2010,11,23,14,02,-2.60
2010,11,23,14,03,-2.60
2010,11,23,14,04,-2.60
2010,11,23,14,05,-2.60
2010,11,23,14,06,-2.50
2010,11,23,14,07,-2.40
2010,11,23,14,08,-2.30
2010,11,23,14,09,-2.20
2010,11,23,14,10,-2.10
2010,11,23,14,11,-2.10
2010,11,23,14,12,-2.00
2010,11,23,14,13,-1.90
2010,11,23,14,14,-1.90
2010,11,23,14,15,-1.80
2010,11,23,14,16,-1.80
2010,11,23,14,17,-1.80
2010,11,23,14,18,-1.70
2010,11,23,14,19,-1.70
2010,11,23,14,20,-1.70
2010,11,23,14,21,-1.70
2010,11,23,14,22,-1.70
2010,11,23,14,23,-1.80
2010,11,23,14,24,-1.90
2010,11,23,14,25,-1.80
2010,11,23,14,26,-1.80
2010,11,23,14,27,-1.90
2010,11,23,14,28,-1.90
2010,11,23,14,29,-2.00
2010,11,23,14,30,-2.00
2010,11,23,14,31,-2.00
2010,11,23,14,32,-1.90
2010,11,23,14,33,-1.80
2010,11,23,14,34,-1.80
2010,11,23,14,35,-1.70
2010,11,23,14,36,-1.60
2010,11,23,14,37,-1.60
2010,11,23,14,38,-1.50
2010,11,23,14,39,-1.50
2010,11,23,14,40,-1.50
2010,11,23,14,41,-1.60
2010,11,23,14,42,-1.70
2010,11,23,14,43,-1.60
2010,11,23,14,44,-1.60
2010,11,23,14,45,-1.60
2010,11,23,14,46,-1.60
2010,11,23,14,47,-1.60
2010,11,23,14,48,-1.60
2010,11,23,14,49,-1.60
2010,11,23,14,50,-1.60
2010,11,23,14,51,-1.60
2010,11,23,14,52,-1.60
2010,11,23,14,53,-1.60
2010,11,23,14,54,-1.60
2010,11,23,14,55,-1.60
2010,11,23,14,56,-1.60
2010,11,23,14,57,-1.50
2010,11,23,14,58,-1.50
2010,11,23,14,59,-1.60
2010,11,23,15,00,-1.90
2010,11,23,15,01,-2.00
2010,11,23,15,02,-2.10
2010,11,23,15,03,-2.10
2010,11,23,15,04,-2.10
2010,11,23,15,05,-2.10
2010,11,23,15,06,-2.20
2010,11,23,15,07,-2.30
2010,11,23,15,08,-2.50
2010,11,23,15,09,-2.50
2010,11,23,15,10,-2.60
2010,11,23,15,11,-2.50
2010,11,23,15,12,-2.50
2010,11,23,15,13,-2.50
2010,11,23,15,14,-2.50
2010,11,23,15,15,-2.40
2010,11,23,15,16,-2.40
2010,11,23,15,17,-2.40
2010,11,23,15,18,-2.30
2010,11,23,15,19,-2.30
2010,11,23,15,20,-2.40
2010,11,23,15,21,-2.40
2010,11,23,15,22,-2.40
2010,11,23,15,23,-2.40
2010,11,23,15,24,-2.30
2010,11,23,15,25,-2.30
2010,11,23,15,26,-2.30
2010,11,23,15,27,-2.20
2010,11,23,15,28,-2.20
2010,11,23,15,29,-2.20
2010,11,23,15,30,-2.20
2010,11,23,15,31,-2.10
2010,11,23,15,32,-2.10
2010,11,23,15,33,-2.10
2010,11,23,15,34,-2.10
2010,11,23,15,35,-2.10
2010,11,23,15,36,-2.10
2010,11,23,15,37,-2.10
2010,11,23,15,38,-2.10
2010,11,23,15,39,-2.10
2010,11,23,15,40,-2.10
2010,11,23,15,41,-2.10
2010,11,23,15,42,-2.10
2010,11,23,15,43,-2.20
2010,11,23,15,44,-2.30
2010,11,23,15,45,-2.40
2010,11,23,15,46,-2.40
2010,11,23,15,47,-2.50
2010,11,23,15,48,-2.60
2010,11,23,15,49,-2.70
2010,11,23,15,50,-2.80
2010,11,23,15,51,-2.80
2010,11,23,15,52,-2.80
2010,11,23,15,53,-2.80
2010,11,23,15,54,-2.80
2010,11,23,15,55,-2.80
2010,11,23,15,56,-2.70
2010,11,23,15,57,-2.60
2010,11,23,15,58,-2.60
2010,11,23,15,59,-2.60
2010,11,23,16,00,-2.60
2010,11,23,16,01,-2.60
2010,11,23,16,02,-2.70
2010,11,23,16,03,-2.70
2010,11,23,16,04,-2.80
2010,11,23,16,05,-2.80
2010,11,23,16,06,-2.80
2010,11,23,16,07,-2.90
2010,11,23,16,08,-2.90
2010,11,23,16,09,-2.90
2010,11,23,16,10,-3.00
2010,11,23,16,11,-3.00
2010,11,23,16,12,-3.00
2010,11,23,16,13,-3.00
2010,11,23,16,14,-3.10
2010,11,23,16,15,-3.10
2010,11,23,16,16,-3.10
2010,11,23,16,17,-3.20
2010,11,23,16,18,-3.30
2010,11,23,16,19,-3.30
2010,11,23,16,20,-3.40
2010,11,23,16,21,-3.40
2010,11,23,16,22,-3.50
2010,11,23,16,23,-3.50
2010,11,23,16,24,-3.60
2010,11,23,16,25,-3.60
2010,11,23,16,26,-3.60
2010,11,23,16,27,-3.70
2010,11,23,16,28,-3.70
2010,11,23,16,29,-3.70
2010,11,23,16,30,-3.70
2010,11,23,16,31,-3.70
2010,11,23,16,32,-3.70
2010,11,23,16,33,-3.70
2010,11,23,16,34,-3.70
2010,11,23,16,35,-3.70
2010,11,23,16,36,-3.70
2010,11,23,16,37,-3.70
2010,11,23,16,38,-3.80
2010,11,23,16,39,-3.80
2010,11,23,16,40,-3.80
2010,11,23,16,41,-3.80
2010,11,23,16,42,-3.90
2010,11,23,16,43,-3.90
2010,11,23,16,44,-3.90
2010,11,23,16,45,-3.90
2010,11,23,16,46,-4.00
2010,11,23,16,47,-4.00
2010,11,23,16,48,-4.00
2010,11,23,16,49,-4.00
2010,11,23,16,50,-4.10
2010,11,23,16,51,-4.10
2010,11,23,16,52,-4.10
2010,11,23,16,53,-4.10
2010,11,23,16,54,-4.10
2010,11,23,16,55,-4.10
2010,11,23,16,56,-4.10
2010,11,23,16,57,-4.10
2010,11,23,16,58,-4.10
2010,11,23,16,59,-4.10
2010,11,23,17,00,-4.10
2010,11,23,17,01,-4.10
2010,11,23,17,02,-4.10
2010,11,23,17,03,-4.10
2010,11,23,17,04,-4.10
2010,11,23,17,05,-4.10
2010,11,23,17,06,-4.10
2010,11,23,17,07,-4.10
2010,11,23,17,08,-4.10
2010,11,23,17,09,-4.10
2010,11,23,17,10,-4.10
2010,11,23,17,11,-4.10
2010,11,23,17,12,-4.10
2010,11,23,17,13,-4.10
2010,11,23,17,14,-4.20
2010,11,23,17,15,-4.20
2010,11,23,17,16,-4.20
2010,11,23,17,17,-4.20
2010,11,23,17,18,-4.20
2010,11,23,17,19,-4.20